• In Österreich
  • Länderverzeichnis
  • Für 7 Tage
  • Wassertemperatur
  • Satellitenkarten
  • Wetterkarte
  • News
  • Widgets
  • user-avatar
    Anmelden

    Stündliche Wetter Marrakesh

    Heute, 24 Juni, Sonntag

    Zeit Temperatur Niederschläge Wind Luftdruck Luftfeuchtigkeit
    00:00 +24°C° 0 mm 2 m/S 721 mmHg 68%
    01:00 +23°C° 0 mm 2 m/S 721 mmHg 70%
    02:00 +23°C° 0 mm 2 m/S 721 mmHg 72%
    03:00 +23°C° 0 mm 2 m/S 721 mmHg 73%
    04:00 +21°C° 0 mm 2 m/S 721 mmHg 75%
    05:00 +21°C° 0 mm 2 m/S 721 mmHg 76%
    06:00 +23°C° 0 mm 2 m/S 721 mmHg 72%
    07:00 +24°C° 0 mm 3 m/S 721 mmHg 69%
    08:00 +24°C° 0 mm 3 m/S 721 mmHg 65%
    09:00 +26°C° 0 mm 3 m/S 722 mmHg 59%
    10:00 +27°C° 0 mm 3 m/S 722 mmHg 53%
    11:00 +29°C° 0 mm 4 m/S 722 mmHg 47%
    12:00 +30°C° 0 mm 4 m/S 722 mmHg 43%
    13:00 +32°C° 0 mm 4 m/S 722 mmHg 39%
    14:00 +33°C° 0 mm 5 m/S 721 mmHg 35%
    15:00 +33°C° 0 mm 5 m/S 721 mmHg 36%
    16:00 +33°C° 0 mm 5 m/S 721 mmHg 38%
    17:00 +32°C° 0 mm 5 m/S 722 mmHg 39%
    18:00 +29°C° 0 mm 5 m/S 722 mmHg 46%
    19:00 +28°C° 0 mm 5 m/S 722 mmHg 52%
    20:00 +26°C° 0 mm 4 m/S 723 mmHg 59%
    21:00 +25°C° 0 mm 4 m/S 723 mmHg 62%
    22:00 +24°C° 0 mm 3 m/S 723 mmHg 65%
    23:00 +24°C° 0 mm 2 m/S 723 mmHg 68%

    Morgen, 25 Juni, Montag

    Zeit Temperatur Niederschläge Wind Luftdruck Luftfeuchtigkeit
    00:00 +23°C° 0 mm 2 m/S 722 mmHg 70%
    01:00 +23°C° 0 mm 2 m/S 722 mmHg 72%
    02:00 +23°C° 0 mm 2 m/S 722 mmHg 74%
    03:00 +21°C° 0 mm 2 m/S 722 mmHg 75%
    04:00 +21°C° 0 mm 2 m/S 722 mmHg 77%
    05:00 +21°C° 0 mm 2 m/S 722 mmHg 78%
    06:00 +23°C° 0 mm 2 m/S 722 mmHg 73%
    07:00 +24°C° 0 mm 3 m/S 722 mmHg 67%
    08:00 +25°C° 0 mm 3 m/S 722 mmHg 62%
    09:00 +27°C° 0 mm 3 m/S 722 mmHg 55%
    10:00 +29°C° 0 mm 4 m/S 722 mmHg 48%
    11:00 +30°C° 0 mm 4 m/S 723 mmHg 41%
    12:00 +33°C° 0 mm 4 m/S 722 mmHg 38%
    13:00 +34°C° 0 mm 5 m/S 722 mmHg 35%
    14:00 +35°C° 0 mm 5 m/S 722 mmHg 31%
    15:00 +34°C° 0 mm 5 m/S 722 mmHg 32%
    16:00 +34°C° 0 mm 5 m/S 722 mmHg 33%
    17:00 +34°C° 0 mm 5 m/S 722 mmHg 34%
    18:00 +32°C° 0 mm 5 m/S 723 mmHg 40%
    19:00 +29°C° 0 mm 5 m/S 723 mmHg 46%
    20:00 +27°C° 0 mm 5 m/S 723 mmHg 52%
    21:00 +27°C° 0 mm 4 m/S 723 mmHg 55%
    22:00 +26°C° 0 mm 3 m/S 723 mmHg 58%
    23:00 +25°C° 0 mm 2 m/S 723 mmHg 62%

    übermorgen, 26 Juni, Dienstag

    Zeit Temperatur Niederschläge Wind Luftdruck Luftfeuchtigkeit
    00:00 +25°C° 0 mm 2 m/S 723 mmHg 64%
    01:00 +24°C° 0 mm 2 m/S 722 mmHg 66%
    02:00 +24°C° 0 mm 2 m/S 722 mmHg 68%
    03:00 +23°C° 0 mm 2 m/S 722 mmHg 69%
    04:00 +23°C° 0 mm 2 m/S 722 mmHg 71%
    05:00 +21°C° 0 mm 2 m/S 722 mmHg 73%
    06:00 +24°C° 0 mm 2 m/S 722 mmHg 67%
    07:00 +25°C° 0 mm 2 m/S 723 mmHg 62%
    08:00 +26°C° 0 mm 3 m/S 723 mmHg 57%
    09:00 +28°C° 0 mm 3 m/S 723 mmHg 51%
    10:00 +29°C° 0 mm 3 m/S 723 mmHg 45%
    11:00 +32°C° 0 mm 4 m/S 723 mmHg 39%
    12:00 +33°C° 0 mm 4 m/S 723 mmHg 36%
    13:00 +34°C° 0 mm 4 m/S 723 mmHg 34%
    14:00 +35°C° 0 mm 4 m/S 723 mmHg 31%
    15:00 +35°C° 0 mm 5 m/S 723 mmHg 31%
    16:00 +34°C° 0 mm 5 m/S 723 mmHg 32%
    17:00 +34°C° 0 mm 5 m/S 723 mmHg 32%
    18:00 +32°C° 0 mm 5 m/S 723 mmHg 36%
    19:00 +29°C° 0 mm 5 m/S 723 mmHg 40%
    20:00 +28°C° 0 mm 5 m/S 724 mmHg 45%
    21:00 +27°C° 0 mm 4 m/S 724 mmHg 47%
    22:00 +26°C° 0 mm 3 m/S 724 mmHg 50%
    23:00 +25°C° 0 mm 2 m/S 723 mmHg 53%

    27 Juni, Mittwoch

    Zeit Temperatur Niederschläge Wind Luftdruck Luftfeuchtigkeit
    00:00 +25°C° 0 mm 2 m/S 723 mmHg 54%
    01:00 +24°C° 0 mm 2 m/S 723 mmHg 56%
    02:00 +24°C° 0 mm 2 m/S 722 mmHg 57%
    03:00 +23°C° 0 mm 2 m/S 722 mmHg 59%
    04:00 +23°C° 0 mm 2 m/S 722 mmHg 61%
    05:00 +21°C° 0 mm 2 m/S 722 mmHg 63%
    06:00 +24°C° 0 mm 2 m/S 722 mmHg 58%
    07:00 +25°C° 0 mm 2 m/S 723 mmHg 53%
    08:00 +26°C° 0 mm 2 m/S 723 mmHg 49%
    09:00 +28°C° 0 mm 3 m/S 722 mmHg 43%
    10:00 +29°C° 0 mm 3 m/S 722 mmHg 38%
    11:00 +32°C° 0 mm 4 m/S 722 mmHg 33%
    12:00 +33°C° 0 mm 4 m/S 722 mmHg 30%
    13:00 +34°C° 0 mm 4 m/S 722 mmHg 28%
    14:00 +35°C° 0 mm 4 m/S 721 mmHg 26%
    15:00 +34°C° 0 mm 5 m/S 721 mmHg 27%
    16:00 +34°C° 0 mm 5 m/S 721 mmHg 29%
    17:00 +33°C° 0 mm 6 m/S 721 mmHg 30%
    18:00 +32°C° 0 mm 5 m/S 722 mmHg 35%
    19:00 +29°C° 0 mm 5 m/S 722 mmHg 40%
    20:00 +27°C° 0 mm 5 m/S 722 mmHg 45%
    21:00 +26°C° 0 mm 4 m/S 722 mmHg 49%
    22:00 +25°C° 0 mm 3 m/S 722 mmHg 52%
    23:00 +24°C° 0 mm 3 m/S 722 mmHg 56%

    28 Juni, Donnerstag

    Zeit Temperatur Niederschläge Wind Luftdruck Luftfeuchtigkeit
    00:00 +23°C° 0 mm 2 m/S 721 mmHg 59%
    01:00 +23°C° 0 mm 2 m/S 721 mmHg 61%
    02:00 +21°C° 0 mm 2 m/S 720 mmHg 64%
    03:00 +21°C° 0 mm 2 m/S 720 mmHg 66%
    04:00 +21°C° 0 mm 2 m/S 720 mmHg 68%
    05:00 +20°C° 0 mm 2 m/S 720 mmHg 70%
    06:00 +21°C° 0 mm 2 m/S 720 mmHg 64%
    07:00 +23°C° 0 mm 2 m/S 720 mmHg 59%
    08:00 +24°C° 0 mm 2 m/S 720 mmHg 54%
    09:00 +26°C° 0 mm 2 m/S 720 mmHg 47%
    10:00 +27°C° 0 mm 3 m/S 720 mmHg 40%
    11:00 +29°C° 0 mm 3 m/S 720 mmHg 33%
    12:00 +30°C° 0 mm 3 m/S 720 mmHg 30%
    13:00 +31°C° 0 mm 3 m/S 719 mmHg 27%
    14:00 +33°C° 0 mm 4 m/S 719 mmHg 25%
    15:00 +32°C° 0 mm 4 m/S 719 mmHg 26%
    16:00 +32°C° 0 mm 4 m/S 719 mmHg 27%
    17:00 +32°C° 0 mm 4 m/S 719 mmHg 27%
    18:00 +29°C° 0 mm 5 m/S 719 mmHg 33%
    19:00 +28°C° 0 mm 5 m/S 720 mmHg 39%
    20:00 +26°C° 0 mm 5 m/S 720 mmHg 45%
    21:00 +25°C° 0 mm 4 m/S 720 mmHg 49%
    22:00 +24°C° 0 mm 3 m/S 720 mmHg 53%
    23:00 +23°C° 0 mm 2 m/S 720 mmHg 57%

    29 Juni, Freitag

    Zeit Temperatur Niederschläge Wind Luftdruck Luftfeuchtigkeit
    00:00 +23°C° 0 mm 2 m/S 719 mmHg 59%
    01:00 +23°C° 0 mm 1 m/S 719 mmHg 61%
    02:00 +22°C° 0 mm 1 m/S 719 mmHg 63%
    03:00 +22°C° 0 mm 1 m/S 719 mmHg 64%
    04:00 +22°C° 0 mm 1 m/S 719 mmHg 65%
    05:00 +22°C° 0 mm 1 m/S 719 mmHg 66%
    06:00 +23°C° 0 mm 1 m/S 719 mmHg 61%
    07:00 +24°C° 0 mm 1 m/S 719 mmHg 56%
    08:00 +25°C° 0 mm 2 m/S 719 mmHg 51%
    09:00 +26°C° 0 mm 2 m/S 719 mmHg 46%
    10:00 +28°C° 0 mm 3 m/S 720 mmHg 41%
    11:00 +29°C° 0 mm 3 m/S 720 mmHg 36%
    12:00 +30°C° 0 mm 4 m/S 719 mmHg 34%
    13:00 +32°C° 0 mm 4 m/S 719 mmHg 31%
    14:00 +33°C° 0 mm 5 m/S 719 mmHg 28%
    15:00 +33°C° 0 mm 5 m/S 719 mmHg 30%
    16:00 +32°C° 0 mm 5 m/S 719 mmHg 32%
    17:00 +32°C° 0 mm 5 m/S 719 mmHg 34%
    18:00 +29°C° 0 mm 5 m/S 720 mmHg 41%
    19:00 +28°C° 0 mm 5 m/S 720 mmHg 48%
    20:00 +26°C° 0 mm 5 m/S 720 mmHg 56%
    21:00 +25°C° 0 mm 4 m/S 720 mmHg 59%
    22:00 +25°C° 0 mm 3 m/S 720 mmHg 62%
    23:00 +24°C° 0 mm 3 m/S 720 mmHg 64%
    Mehr zeigen